Weather History for Redmond, OR

Change the Weather History Date:

Wednesday, December 12, 2012

  Actual Average Record
Temperature  
Mean Temperature 32 °F 30 °F  
Max Temperature 41 °F 40 °F 60 °F (1956)
Min Temperature 22 °F 20 °F -8 °F (1972)
Degree Days  
Heating Degree Days 33 35  
Month to date heating degree days 315 406  
Since 1 July heating degree days 1848 2180  
Cooling Degree Days 0 0  
Month to date cooling degree days 0 0  
Year to date cooling degree days 206 222  
Moisture  
Dew Point 24 °F    
Average Humidity 70    
Maximum Humidity 96    
Minimum Humidity 44    
Precipitation  
Precipitation 0.00 in 0.04 in 0.31 in (1948)
Month to date precipitation 0.71 0.47  
Year to date precipitation 10.65 8.21  
Sea Level Pressure  
Sea Level Pressure 29.81 in    
Wind  
Wind Speed 3 mph (SSW)    
Max Wind Speed 14 mph    
Max Gust Speed 17 mph    
Visibility 10 miles    
Events      
T = Trace of Precipitation, MM = Missing Value Source: NWS Daily Summary

Daily Weather History Graph

Daily Weather History Graph

Search for Another Location

Airport:

Trip Planner

Search our weather history database for the weather conditions in past years. The results will help you decide how hot, cold, wet, or windy it might be!

Date:

Astronomy

Dec. 12, 2012 Rise Set
Actual Time 7:31 AM PST 4:25 PM PST
Civil Twilight 6:58 AM PST 4:58 PM PST
Nautical Twilight 6:21 AM PST 5:35 PM PST
Astronomical Twilight 5:46 AM PST 6:10 PM PST
Moon 6:40 AM PST (12/12) 4:08 PM PST (12/12)
Length of Visible Light 10h 00m
Length of Day
8h 54m
Waning Crescent, 0% of the Moon is Illuminated
Dec 12
Waning Crescent
Dec 13
New
Dec 19
First Quarter
Dec 28
Full
Jan 4
Last Quarter

Hourly Weather History & Observations

Time (PST) Temp. Windchill Dew Point Humidity Pressure Visibility Wind Dir Wind Speed Gust Speed Precip Events Conditions
12:56 AM 34.0 °F - 30.9 °F 89% 29.63 in 10.0 mi Calm Calm - N/A   Mostly Cloudy
1:56 AM 34.0 °F 28.0 °F 28.9 °F 82% 29.65 in 10.0 mi SW 6.9 mph - N/A   Mostly Cloudy
2:56 AM 33.1 °F 30.0 °F 28.0 °F 82% 29.67 in 10.0 mi WSW 3.5 mph - N/A   Overcast
3:56 AM 30.9 °F - 27.0 °F 85% 29.69 in 10.0 mi Calm Calm - N/A   Clear
4:56 AM 34.0 °F 26.6 °F 25.0 °F 70% 29.70 in 10.0 mi WSW 9.2 mph - N/A   Mostly Cloudy
5:56 AM 30.9 °F - 26.1 °F 82% 29.73 in 10.0 mi Calm Calm - N/A   Clear
6:56 AM 28.9 °F - 25.0 °F 85% 29.76 in 10.0 mi Calm Calm - N/A   Mostly Cloudy
7:56 AM 28.0 °F - 23.0 °F 81% 29.78 in 10.0 mi Calm Calm - N/A   Clear
8:56 AM 33.1 °F 30.0 °F 26.1 °F 75% 29.79 in 10.0 mi SSE 3.5 mph - N/A   Clear
9:56 AM 37.0 °F 32.4 °F 25.0 °F 62% 29.80 in 10.0 mi SE 5.8 mph - N/A   Mostly Cloudy
10:56 AM 39.0 °F 35.7 °F 23.0 °F 53% 29.81 in 10.0 mi SSE 4.6 mph - N/A   Partly Cloudy
11:56 AM 39.9 °F - 21.0 °F 47% 29.80 in 10.0 mi Calm Calm - N/A   Scattered Clouds
1:56 PM 39.0 °F 32.8 °F 19.9 °F 46% 29.81 in 10.0 mi WNW 9.2 mph - N/A   Mostly Cloudy
2:56 PM 39.9 °F 33.9 °F 21.9 °F 49% 29.82 in 10.0 mi NW 9.2 mph - N/A   Overcast
3:56 PM 37.0 °F 31.0 °F 21.0 °F 52% 29.84 in 10.0 mi NNW 8.1 mph - N/A   Mostly Cloudy
5:56 PM 32.0 °F 28.7 °F 23.0 °F 69% 29.89 in 10.0 mi SSW 3.5 mph - N/A   Overcast
6:56 PM 28.9 °F 25.2 °F 25.0 °F 85% 29.91 in 10.0 mi SSE 3.5 mph - N/A   Overcast
7:56 PM 27.0 °F - 23.0 °F 85% 29.94 in 10.0 mi Calm Calm - N/A   Partly Cloudy
8:56 PM 26.1 °F - 23.0 °F 88% 29.94 in 10.0 mi Calm Calm - N/A   Mostly Cloudy
9:56 PM 26.1 °F - 23.0 °F 88% 29.95 in 10.0 mi Calm Calm - N/A   Partly Cloudy
10:56 PM 23.0 °F 18.4 °F 21.0 °F 92% 29.98 in 10.0 mi SSE 3.5 mph - N/A   Mostly Cloudy
11:56 PM 24.1 °F - 21.0 °F 88% 29.99 in 10.0 mi Calm Calm - N/A   Mostly Cloudy